Regional Weather Roundup
Issued by NWS

Home | Current Version | Previous Version | Graphics & Text | Print | Product List | Glossary On
Versions: 1 2 3 4 5 6 7 8 9 10 11 12 13 14 15 16 17 18 19 20 21 22 23 24 25 26 27 28 29 30 31 32 33 34 35 36 37 38 39 40 41 42 43 44 45 46 47 48 49 50
000
ASUS45 KCYS 251410
RWRWY

WYOMING REGIONAL WEATHER ROUNDUP
NATIONAL WEATHER SERVICE CHEYENNE WY
800 AM MDT MON SEP 25 2017

NOTE:  "FAIR" INDICATES FEW OR NO CLOUDS BELOW 12,000 FEET
WITH NO SIGNIFICANT WEATHER AND/OR OBSTRUCTIONS TO VISIBILITY.

WYZ001-251500-
YELLOWSTONE NATIONAL PARK

CITY           SKY/WX    TMP DP  RH WIND       PRES   REMARKS
LK YELLOWSTONE NOT AVBL
W YELLOWSTONE  NOT AVBL

$$
WYZ002>013-054>058-071-098>099-251500-
NORTHERN WYOMING

CITY           SKY/WX    TMP DP  RH WIND       PRES   REMARKS
JACKSON        CLOUDY    34  33  96 CALM      30.13S
CODY           FAIR      40  37  89 CALM      30.12R
GREYBULL       LGT RAIN  43  42  97 SW3       30.11S
WORLAND        CLOUDY    43  42  97 CALM      30.10S
SHERIDAN       LGT RAIN  43  42  97 CALM      30.12S
BUFFALO        LGT RAIN  39  36  89 SE3       30.12S
GILLETTE       CLOUDY    40  39  97 W3        30.10F
HULETT         CLOUDY    39  37  93 CALM      30.13S
NEWCASTLE      DRIZZLE   39  39 100 CALM      30.13F

$$
WYZ014>020-022>026-101>103-251500-
CENTRAL WYOMING

CITY           SKY/WX    TMP DP  RH WIND       PRES   REMARKS
BIG PINEY      CLOUDY    34  33  96 NE3       30.13R
PINEDALE       CLOUDY    32  32 100 CALM      30.13S
DUBOIS         LGT SNOW  32  32 100 CALM      30.10S
LANDER         CLOUDY    37  36  96 S3        30.11S
RIVERTON       CLOUDY    37  37 100 SW6       30.11F WCI  32
CASPER         CLOUDY    35  34  96 W3        30.11S
DOUGLAS        CLOUDY    40  36  86 CALM      30.11F

$$
WYZ021-027>030-104>119-251500-
SOUTHERN WYOMING

CITY           SKY/WX    TMP DP  RH WIND       PRES   REMARKS
EVANSTON       CLOUDY    33  33 100 SW5       30.14S FOG     WCI  29
FORT BRIDGER   CLOUDY    35  35 100 SW8       30.16S WCI  29
ROCK SPRINGS   CLOUDY    35  33  92 NW3       30.12S
DIXON          CLOUDY    36  33  90 CALM      30.16S
RAWLINS        PTSUNNY   37  34  89 W7        30.11S WCI  32
SARATOGA       FOG       34  34 100 E3        30.12S VSB 1/4
LARAMIE        CLOUDY    31  30  96 SE9       30.10F WCI  23
CHEYENNE       FAIR      38  36  92 CALM      30.11S
TORRINGTON     CLOUDY    42  41  96 NE6       30.12R
PINE BLUFFS    PTSUNNY   39  39 100 MISG      30.14R

$$



USA.gov is the U.S. government's official web portal to all federal, state and local government web resources and services.